KRAUCHNWS Weather Reports


time (UTC)temp
F
wind
direction
speed
knots
gust
knots
rain 1hr
in
rain 24hr
in
rain mn
in
humidity
%
barometer
mb
20260507063211 46 227 10.4 0.0 0.00 0.00 0.03 95 1012.5
20260507060211 46 215 6.1 0.0 0.00 0.00 0.02 95 1012.3
20260507053211 45 194 7.8 0.0 0.00 0.00 0.02 95 1012.0
20260507050213 45 236 10.4 0.0 0.00 0.00 0.01 95 1011.6
20260507043211 45 274 8.7 0.0 0.00 0.00 0.00 94 1011.2
20260507040216 45 207 8.7 0.0 0.00 0.00 0.00 94 1011.1
20260507033211 45 225 7.0 0.0 0.00 0.00 0.00 94 1010.9
20260507030211 44 251 6.1 0.0 0.00 0.00 0.00 95 1010.8
20260507023211 44 244 6.1 0.0 0.00 0.00 0.00 95 1010.6
20260507020211 44 215 7.8 0.0 0.00 0.00 0.00 95 1010.5
20260507013212 43 202 11.3 0.0 0.00 0.00 0.00 95 1010.1
20260507010211 43 192 7.8 0.0 0.00 0.00 0.00 95 1010.3
20260507003209 44 165 9.6 0.0 0.00 0.00 0.00 95 1009.8
20260507000209 44 209 5.2 0.0 0.00 0.00 0.00 94 1009.7
20260506233209 44 190 5.2 0.0 0.00 0.00 0.00 93 1009.8
20260506230209 45 255 7.8 0.0 0.00 0.00 0.00 93 1009.7
20260506223209 45 229 6.1 0.0 0.00 0.00 0.00 94 1009.6
20260506213209 46 231 6.1 0.0 0.00 0.00 0.09 93 1009.4
20260506210210 46 229 7.0 0.0 0.00 0.00 0.09 93 1009.3
20260506203210 46 181 4.3 0.0 0.00 0.00 0.09 93 1009.1
20260506200210 46 255 10.4 0.0 0.00 0.00 0.09 93 1008.9
20260506193215 46 246 8.7 0.0 0.00 0.00 0.09 93 1008.7
20260506190211 47 188 10.4 0.0 0.00 0.00 0.09 92 1008.2
20260506183209 47 200 10.4 0.0 0.00 0.00 0.09 91 1007.9
20260506180216 48 239 10.4 0.0 0.00 0.00 0.09 91 1007.8
20260506173210 49 188 11.3 0.0 0.00 0.00 0.09 91 1007.3
20260506170215 49 240 6.1 0.0 0.00 0.00 0.09 93 1006.6
20260506163210 48 211 9.6 0.0 0.00 0.00 0.09 93 1006.9
20260506160210 48 232 10.4 0.0 0.00 0.00 0.09 93 1006.7
20260506153210 48 234 16.5 0.0 0.00 0.00 0.06 92 1006.7
20260506150210 49 213 24.3 0.0 0.00 0.00 0.03 91 1006.3
20260506143210 52 175 26.1 0.0 0.00 0.00 0.00 88 1005.4
20260506140210 57 248 12.2 0.0 0.00 0.00 0.00 72 1004.7
20260506133211 59 205 8.7 0.0 0.00 0.00 0.00 71 1004.6
20260506130211 59 255 5.2 0.0 0.00 0.00 0.00 68 1004.4
20260506123210 60 186 6.1 0.0 0.00 0.00 0.00 67 1004.6
20260506120210 60 316 4.3 0.0 0.00 0.00 0.00 68 1004.4
20260506113217 60 64 4.3 0.0 0.00 0.00 0.00 67 1004.6
20260506110210 58 135 3.5 0.0 0.00 0.00 0.00 70 1004.7
20260506100213 56 5 2.6 0.0 0.00 0.00 0.00 75 1004.9
20260506093211 56 148 1.7 0.0 0.00 0.00 0.00 77 1005.2
20260506090211 56 220 2.6 0.0 0.00 0.00 0.00 75 1005.1
20260506083211 55 158 3.5 0.0 0.00 0.00 0.00 86 1005.0
20260506080212 53 153 1.7 0.0 0.00 0.00 0.00 89 1005.1
20260506073211 51 166 2.6 0.0 0.00 0.00 0.00 94 1005.6
20260506070212 50 175 2.6 0.0 0.00 0.00 0.00 97 1005.6